2001 CA21
ephemeris date magn radius delta ra dec elong phase
Today29 Apr 202623.92.615 AU3.575 AU03h22m+19°01'14.9°5.7°
2001 CA21 - 2026-04-29
astro.vanbuitenen.nl


 
-1 year
-1 month
-1 day
Now
+1 day
+1 month
+1 year

The interactive orbit chart above shows the body's path through the solar system and its position at the given date. Green and blue lines are shown perpendicular to the ecliptic plane: Green if the path is above the ecliptic plane, blue if it is below. (Left-click and drag to rotate the view; Right-click and drag to move the view; Use scroll wheel to zoom in our out.)

The orbital elements of 2001 CA21 are:

            e (Eccentricity)                : 0.8289717
            a (Semimajor axis)              : 2.1131443
            i (Inclination)                 : 5.25828
            Ω (Longitude of ascending node) : 51.79975
            ω (Argument of perihelion)      : 212.75474
            M (Mean anomaly)                : 343.17872
            Epoch                           : 2001 Jan 31

            L (Longitude of perihelion)     : 84.44464
            B (Latitude of perihelion)      : -2.84213
            P (Orbital period in years)     : 3.07            
        

The light curve chart below shows the estimated development of the minor planet's magnitude.


The all-sky chart below shows the path of the minor planet over the same period as the light curve. The current position is marked yellow.





The following chart shows the path of the minor planet in the next few days. The field of view is optimized for (~10x50) binoculars and finderscopes.




Ephemerides:
Date       Time       RA (2000)    DEC (2000)    delta   radius  elong  phase   PA    magn
2026-04-29 00:00 UT   03 22 43.2   +19 01 53     3.575    2.615   14.9    5.7    74   23.9 
2026-04-29 16:53 UT   03 23 45.1   +19 06 01     3.584    2.621   14.4    5.5    74   23.9 
2026-04-30 00:00 UT   03 24 11.2   +19 07 44     3.587    2.623   14.3    5.4    74   23.9 
2026-05-01 00:00 UT   03 25 38.9   +19 13 32     3.598    2.630   13.6    5.2    74   23.9 
2026-05-02 00:00 UT   03 27 06.5   +19 19 16     3.610    2.638   13.0    4.9    74   23.9 
2026-05-03 00:00 UT   03 28 33.8   +19 24 57     3.621    2.645   12.4    4.7    74   23.9 
2026-05-04 00:00 UT   03 30 01.0   +19 30 34     3.631    2.653   11.8    4.5    74   23.9 
2026-05-05 00:00 UT   03 31 28.0   +19 36 07     3.642    2.660   11.2    4.2    73   23.9 
2026-05-06 00:00 UT   03 32 54.7   +19 41 36     3.652    2.668   10.6    4.0    73   23.9 
2026-05-07 00:00 UT   03 34 21.3   +19 47 02     3.663    2.675   10.0    3.7    73   23.9 
2026-05-08 00:00 UT   03 35 47.7   +19 52 24     3.673    2.682    9.3    3.5    73   23.9 
2026-05-09 00:00 UT   03 37 13.9   +19 57 43     3.683    2.690    8.7    3.3    73   23.9 
2026-05-10 00:00 UT   03 38 39.8   +20 02 58     3.692    2.697    8.1    3.0    73   23.9 
2026-05-11 00:00 UT   03 40 05.6   +20 08 09     3.702    2.704    7.5    2.8    72   23.9 
2026-05-12 00:00 UT   03 41 31.2   +20 13 17     3.711    2.711    6.9    2.6    72   23.9 
2026-05-13 00:00 UT   03 42 56.6   +20 18 22     3.720    2.718    6.3    2.3    72   23.9 
2026-05-14 00:00 UT   03 44 21.8   +20 23 23     3.729    2.726    5.6    2.1    71   23.9 
2026-05-15 00:00 UT   03 45 46.7   +20 28 20     3.738    2.733    5.0    1.9    70   23.9 
2026-05-16 00:00 UT   03 47 11.5   +20 33 14     3.747    2.740    4.4    1.6    70   23.9 
2026-05-17 00:00 UT   03 48 36.1   +20 38 04     3.755    2.747    3.8    1.4    68   23.9 
2026-05-18 00:00 UT   03 50 00.4   +20 42 51     3.763    2.754    3.2    1.2    66   23.8 
2026-05-19 00:00 UT   03 51 24.5   +20 47 35     3.771    2.761    2.6    0.9    64   23.8 
2026-05-20 00:00 UT   03 52 48.4   +20 52 15     3.779    2.768    2.0    0.7    59   23.8 
2026-05-21 00:00 UT   03 54 12.1   +20 56 52     3.786    2.775    1.4    0.5    50   23.8 
2026-05-22 00:00 UT   03 55 35.5   +21 01 25     3.793    2.782    0.9    0.3    31   23.8 
2026-05-23 00:00 UT   03 56 58.7   +21 05 55     3.801    2.788    0.7    0.2   346   23.8 


    Terminology:
            
    delta:  distance between minor planet and earth in AU
    radius: distance between minor planet and sun in AU
    magn:   magnitude (brightness) estimate    
    ra:     right ascension in hours (24h = 360deg)
    dec:    declination in degrees
    elong:  elongation in degrees (angle sun-earth-minor planet)    
    phase:  phase angle in degrees (angle sun-minor planet-earth)        
    AU:     Astronomical Unit (mean distance between earth and sun: 149597870.7 km
    

Orbital elements provided by the MPC (Minor Planet Center).
Calculations by a modified version of AAPlus, a C# implementation of the AA+ project by PJ Naughter from the algorithms presented in the book "Astronomical Algorithms" by Jean Meeus.
NGC2000 dso catalog and star labels from VizieR as provided by the Strasbourg astronomical Data Center.
Tycho2 catalog from the ESO archive.